THY6805 LTFO-LTFJ

Flight info

Callsign THY6805
Flight time 1h 27m
Altitude 36000
Route LTFO/06 N0448F360 ZUBR1M ZUBRE UN37 TBN UW706 BAMLA UW704 CRM DCT DEREL UT79 NAMAN NAMA1H LTFJ/24L
Aircraft A321/M-CDT/C

Departure

Time 2026-05-07 12:12
Airport Rize–Artvin Airport (LTFO)

Arrival

Time 2026-05-07 13:39
Airport Istanbul Sabiha Gökçen International Airport (LTFJ)
Time Latitude Longitude Altitude Speed Heading
2026-05-07 11:53 41.17552 40.84546 63 ft 0 kts 161°
2026-05-07 12:05 41.17556 40.84544 63 ft 2 kts 161°
2026-05-07 12:05 41.17573 40.84537 54 ft 3 kts 180°
2026-05-07 12:05 41.17590 40.84540 55 ft 3 kts 207°
2026-05-07 12:06 41.17600 40.84548 56 ft 3 kts 225°
2026-05-07 12:06 41.17610 40.84566 57 ft 2 kts 253°
2026-05-07 12:06 41.17611 40.84568 56 ft 0 kts 253°
2026-05-07 12:07 41.17609 40.84560 57 ft 2 kts 253°
2026-05-07 12:07 41.17603 40.84534 60 ft 4 kts 253°
2026-05-07 12:07 41.17618 40.84510 60 ft 4 kts 341°
2026-05-07 12:07 41.17651 40.84501 60 ft 6 kts 341°
2026-05-07 12:08 41.17697 40.84478 59 ft 8 kts 338°
2026-05-07 12:08 41.17756 40.84446 62 ft 10 kts 338°
2026-05-07 12:08 41.17822 40.84386 61 ft 13 kts 297°
2026-05-07 12:08 41.17815 40.84267 55 ft 14 kts 256°
2026-05-07 12:09 41.17787 40.84143 57 ft 15 kts 250°
2026-05-07 12:09 41.17755 40.84015 56 ft 14 kts 252°
2026-05-07 12:09 41.17723 40.83889 62 ft 15 kts 251°
2026-05-07 12:09 41.17688 40.83751 64 ft 17 kts 251°
2026-05-07 12:10 41.17647 40.83595 62 ft 17 kts 250°
2026-05-07 12:10 41.17602 40.83435 58 ft 19 kts 249°
2026-05-07 12:10 41.17530 40.83299 57 ft 13 kts 223°
2026-05-07 12:10 41.17534 40.83235 57 ft 9 kts
2026-05-07 12:11 41.17571 40.83309 53 ft 13 kts 70°
2026-05-07 12:11 41.17657 40.83634 60 ft 74 kts 71°
2026-05-07 12:11 41.17899 40.84582 60 ft 140 kts 72°
2026-05-07 12:11 41.18231 40.85940 501 ft 156 kts 71°
2026-05-07 12:12 41.18579 40.87336 1209 ft 168 kts 70°
2026-05-07 12:12 41.18964 40.88814 1683 ft 169 kts 70°
2026-05-07 12:12 41.19351 40.90293 2146 ft 170 kts 71°
2026-05-07 12:12 41.19741 40.91787 2584 ft 173 kts 71°
2026-05-07 12:13 41.20137 40.93302 3012 ft 175 kts 71°
2026-05-07 12:13 41.20543 40.94869 3472 ft 188 kts 71°
2026-05-07 12:13 41.21013 40.96625 3920 ft 214 kts 66°
2026-05-07 12:13 41.22058 40.98109 4345 ft 236 kts 25°
2026-05-07 12:14 41.23741 40.98431 4856 ft 258 kts 351°
2026-05-07 12:14 41.25522 40.97886 5420 ft 266 kts 340°
2026-05-07 12:14 41.27267 40.97044 5988 ft 268 kts 336°
2026-05-07 12:14 41.28797 40.95666 6557 ft 268 kts 310°
2026-05-07 12:15 41.29774 40.93579 7099 ft 268 kts 289°
2026-05-07 12:15 41.30103 40.91155 7643 ft 269 kts 268°
2026-05-07 12:15 41.29749 40.88708 8203 ft 271 kts 254°
2026-05-07 12:15 41.29218 40.86261 8772 ft 273 kts 254°
2026-05-07 12:16 41.28683 40.83857 9338 ft 276 kts 254°
2026-05-07 12:16 41.28126 40.81372 9935 ft 278 kts 254°
2026-05-07 12:16 41.27568 40.78883 10482 ft 288 kts 254°
2026-05-07 12:16 41.26979 40.76248 11034 ft 306 kts 255°
2026-05-07 12:17 41.26362 40.73468 11589 ft 322 kts 255°
2026-05-07 12:17 41.25715 40.70551 12139 ft 336 kts 255°
2026-05-07 12:17 41.25064 40.67511 12723 ft 349 kts 256°
2026-05-07 12:17 41.24464 40.64320 13303 ft 361 kts 258°
2026-05-07 12:18 41.23894 40.61012 13893 ft 373 kts 259°
2026-05-07 12:18 41.23326 40.57603 14436 ft 384 kts 259°
2026-05-07 12:18 41.22741 40.54091 14969 ft 394 kts 258°
2026-05-07 12:18 41.22130 40.50499 15522 ft 405 kts 258°
2026-05-07 12:19 41.21489 40.46811 16072 ft 414 kts 258°
2026-05-07 12:19 41.20829 40.43054 16636 ft 422 kts 258°
2026-05-07 12:19 41.19893 40.39316 17206 ft 430 kts 246°
2026-05-07 12:19 41.18580 40.35710 17795 ft 437 kts 245°
2026-05-07 12:20 41.17238 40.32068 18393 ft 442 kts 245°
2026-05-07 12:20 41.15878 40.28381 18929 ft 447 kts 245°
2026-05-07 12:20 41.14505 40.24650 19462 ft 453 kts 245°
2026-05-07 12:20 41.13120 40.20876 20001 ft 457 kts 245°
2026-05-07 12:21 41.11720 40.17064 20574 ft 461 kts 245°
2026-05-07 12:21 41.10312 40.13235 21208 ft 462 kts 245°
2026-05-07 12:21 41.08901 40.09407 21804 ft 463 kts 245°
2026-05-07 12:21 41.07487 40.05581 22383 ft 462 kts 245°
2026-05-07 12:22 41.06069 40.01753 22927 ft 462 kts 245°
2026-05-07 12:22 41.04654 39.97932 23478 ft 462 kts 245°
2026-05-07 12:22 41.03238 39.94104 23994 ft 463 kts 245°
2026-05-07 12:22 41.01822 39.90276 24468 ft 463 kts 245°
2026-05-07 12:23 41.00387 39.86408 24955 ft 463 kts 245°
2026-05-07 12:23 40.98965 39.82582 25408 ft 463 kts 245°
2026-05-07 12:23 40.97537 39.78751 25863 ft 465 kts 245°
2026-05-07 12:23 40.96102 39.74911 26309 ft 466 kts 245°
2026-05-07 12:24 40.94661 39.71063 26772 ft 467 kts 245°
2026-05-07 12:24 40.93220 39.67219 27242 ft 467 kts 245°
2026-05-07 12:24 40.91776 39.63368 27715 ft 467 kts 245°
2026-05-07 12:24 40.90333 39.59519 28190 ft 467 kts 245°
2026-05-07 12:25 40.88890 39.55673 28689 ft 467 kts 245°
2026-05-07 12:25 40.87444 39.51830 29196 ft 466 kts 245°
2026-05-07 12:25 40.86002 39.48003 29698 ft 465 kts 245°
2026-05-07 12:25 40.84559 39.44184 30218 ft 464 kts 245°
2026-05-07 12:26 40.83119 39.40383 30649 ft 463 kts 245°
2026-05-07 12:26 40.81680 39.36587 31083 ft 461 kts 245°
2026-05-07 12:26 40.80247 39.32808 31523 ft 460 kts 245°
2026-05-07 12:26 40.78820 39.29046 31981 ft 458 kts 245°
2026-05-07 12:27 40.77399 39.25298 32451 ft 456 kts 245°
2026-05-07 12:27 40.75984 39.21571 32911 ft 453 kts 245°
2026-05-07 12:27 40.74575 39.17862 33388 ft 451 kts 245°
2026-05-07 12:27 40.73173 39.14173 33874 ft 449 kts 245°
2026-05-07 12:28 40.71777 39.10508 34335 ft 446 kts 244°
2026-05-07 12:28 40.70388 39.06869 34745 ft 443 kts 244°
2026-05-07 12:28 40.69004 39.03249 35061 ft 443 kts 244°
2026-05-07 12:28 40.67615 38.99618 35320 ft 444 kts 245°
2026-05-07 12:29 40.66459 38.95861 35582 ft 443 kts 255°
2026-05-07 12:29 40.65799 38.91914 35843 ft 442 kts 264°
2026-05-07 12:29 40.65725 38.87875 36101 ft 441 kts 277°
2026-05-07 12:30 40.66614 38.79831 36199 ft 447 kts 279°
2026-05-07 12:30 40.67568 38.71674 36201 ft 449 kts 279°
2026-05-07 12:31 40.68529 38.63546 36204 ft 449 kts 279°
2026-05-07 12:31 40.69475 38.55426 36203 ft 449 kts 279°
2026-05-07 12:32 40.70405 38.47298 36209 ft 449 kts 279°
2026-05-07 12:32 40.71331 38.39159 36232 ft 448 kts 279°
2026-05-07 12:33 40.72705 38.27011 36237 ft 446 kts 279°
2026-05-07 12:33 40.73611 38.18941 36235 ft 445 kts 279°
2026-05-07 12:34 40.74514 38.10868 36235 ft 445 kts 279°
2026-05-07 12:34 40.75417 38.02803 36225 ft 444 kts 279°
2026-05-07 12:35 40.76301 37.94744 36219 ft 444 kts 279°
2026-05-07 12:35 40.77175 37.86685 36213 ft 444 kts 279°
2026-05-07 12:36 40.78057 37.78632 36202 ft 444 kts 279°
2026-05-07 12:36 40.78926 37.70573 36195 ft 444 kts 279°
2026-05-07 12:37 40.79789 37.62504 36183 ft 444 kts 279°
2026-05-07 12:37 40.80647 37.54445 36181 ft 443 kts 279°
2026-05-07 12:38 40.81501 37.46335 36179 ft 443 kts 279°
2026-05-07 12:38 40.82206 37.39642 36176 ft 443 kts 279°
2026-05-07 12:39 40.83051 37.31607 36170 ft 442 kts 279°
2026-05-07 12:39 40.83883 37.23560 36166 ft 442 kts 279°
2026-05-07 12:40 40.84713 37.15505 36164 ft 442 kts 279°
2026-05-07 12:40 40.85536 37.07462 36162 ft 442 kts 279°
2026-05-07 12:41 40.86351 36.99421 36160 ft 442 kts 279°
2026-05-07 12:41 40.87158 36.91383 36153 ft 441 kts 279°
2026-05-07 12:42 40.87959 36.83368 36151 ft 441 kts 279°
2026-05-07 12:42 40.88770 36.75277 36148 ft 440 kts 279°
2026-05-07 12:43 40.89564 36.67259 36148 ft 440 kts 279°
2026-05-07 12:43 40.90342 36.59244 36148 ft 440 kts 279°
2026-05-07 12:44 40.91123 36.51231 36154 ft 439 kts 279°
2026-05-07 12:44 40.91904 36.43223 36149 ft 439 kts 279°
2026-05-07 12:45 40.92670 36.35221 36146 ft 439 kts 279°
2026-05-07 12:45 40.93431 36.27217 36146 ft 438 kts 279°
2026-05-07 12:46 40.94188 36.19225 36148 ft 438 kts 279°
2026-05-07 12:46 40.94935 36.11226 36150 ft 438 kts 279°
2026-05-07 12:47 40.95671 36.03232 36145 ft 438 kts 279°
2026-05-07 12:47 40.96408 35.95240 36146 ft 437 kts 279°
2026-05-07 12:48 40.97145 35.87268 36145 ft 437 kts 279°
2026-05-07 12:48 40.97876 35.79297 36147 ft 436 kts 280°
2026-05-07 12:49 40.98594 35.71328 36147 ft 436 kts 280°
2026-05-07 12:49 40.99295 35.63372 36149 ft 436 kts 280°
2026-05-07 12:50 41.00002 35.55347 36152 ft 435 kts 280°
2026-05-07 12:50 41.00709 35.47402 36151 ft 435 kts 280°
2026-05-07 12:51 41.01408 35.39452 36145 ft 434 kts 280°
2026-05-07 12:51 41.02092 35.31515 36144 ft 434 kts 280°
2026-05-07 12:52 41.02768 35.23582 36141 ft 433 kts 280°
2026-05-07 12:52 41.03451 35.15662 36134 ft 433 kts 280°
2026-05-07 12:53 41.04121 35.07746 36136 ft 432 kts 280°
2026-05-07 12:53 41.04780 34.99834 36130 ft 432 kts 280°
2026-05-07 12:54 41.05436 34.91938 36131 ft 431 kts 280°
2026-05-07 12:54 41.06090 34.84034 36123 ft 431 kts 279°
2026-05-07 12:55 41.06738 34.76149 36127 ft 431 kts 279°
2026-05-07 12:55 41.07375 34.68252 36123 ft 431 kts 279°
2026-05-07 12:56 41.08008 34.60354 36124 ft 430 kts 279°
2026-05-07 12:56 41.08635 34.52464 36124 ft 430 kts 279°
2026-05-07 12:57 41.09254 34.44574 36126 ft 431 kts 279°
2026-05-07 12:57 41.09875 34.36682 36129 ft 430 kts 279°
2026-05-07 12:58 41.10488 34.28794 36129 ft 430 kts 279°
2026-05-07 12:58 41.11100 34.20863 36128 ft 430 kts 279°
2026-05-07 12:59 41.11701 34.12986 36129 ft 429 kts 279°
2026-05-07 12:59 41.12291 34.05102 36133 ft 429 kts 278°
2026-05-07 13:00 41.12876 33.97223 36136 ft 429 kts 279°
2026-05-07 13:00 41.13461 33.89343 36133 ft 429 kts 279°
2026-05-07 13:01 41.14045 33.81468 36131 ft 429 kts 279°
2026-05-07 13:01 41.14620 33.73587 36130 ft 429 kts 279°
2026-05-07 13:02 41.15183 33.65724 36132 ft 428 kts 279°
2026-05-07 13:02 41.15742 33.57866 36139 ft 427 kts 279°
2026-05-07 13:03 41.16302 33.50018 36136 ft 427 kts 279°
2026-05-07 13:03 41.16851 33.42170 36132 ft 427 kts 279°
2026-05-07 13:04 41.17392 33.34331 36132 ft 426 kts 279°
2026-05-07 13:04 41.17926 33.26499 36131 ft 426 kts 279°
2026-05-07 13:05 41.18457 33.18682 36117 ft 424 kts 279°
2026-05-07 13:05 41.18984 33.10825 36117 ft 425 kts 279°
2026-05-07 13:06 41.19503 33.03029 36121 ft 424 kts 279°
2026-05-07 13:06 41.20017 32.95224 36123 ft 424 kts 279°
2026-05-07 13:07 41.20525 32.87431 36120 ft 423 kts 279°
2026-05-07 13:07 41.21023 32.79648 36124 ft 423 kts 279°
2026-05-07 13:08 41.21519 32.71855 36128 ft 423 kts 279°
2026-05-07 13:08 41.21732 32.64030 36139 ft 428 kts 271°
2026-05-07 13:09 41.21348 32.56147 36136 ft 427 kts 271°
2026-05-07 13:09 41.20947 32.48280 36140 ft 427 kts 271°
2026-05-07 13:10 41.20542 32.40406 35975 ft 428 kts 271°
2026-05-07 13:10 41.20336 32.36466 35649 ft 427 kts 271°
2026-05-07 13:10 41.20128 32.32540 35324 ft 426 kts 271°
2026-05-07 13:11 41.19920 32.28615 34989 ft 426 kts 271°
2026-05-07 13:11 41.19713 32.24693 34581 ft 426 kts 271°
2026-05-07 13:11 41.19504 32.20773 34125 ft 424 kts 271°
2026-05-07 13:11 41.19292 32.16885 33730 ft 421 kts 272°
2026-05-07 13:12 41.19077 32.13028 33342 ft 417 kts 272°
2026-05-07 13:12 41.18864 32.09197 32970 ft 414 kts 272°
2026-05-07 13:12 41.18655 32.05397 32599 ft 412 kts 272°
2026-05-07 13:12 41.18514 32.02838 32360 ft 410 kts 272°
2026-05-07 13:13 41.18307 31.99073 31993 ft 408 kts 272°
2026-05-07 13:13 41.18099 31.95326 31636 ft 406 kts 272°
2026-05-07 13:13 41.17891 31.91606 31283 ft 403 kts 273°
2026-05-07 13:13 41.17775 31.87910 30915 ft 398 kts 276°
2026-05-07 13:14 41.17774 31.84251 30544 ft 394 kts 277°
2026-05-07 13:14 41.17838 31.80638 30180 ft 391 kts 278°
2026-05-07 13:14 41.17922 31.77044 29749 ft 388 kts 278°
2026-05-07 13:14 41.17995 31.73548 29332 ft 386 kts 277°
2026-05-07 13:15 41.18049 31.69989 28927 ft 384 kts 277°
2026-05-07 13:15 41.18084 31.66454 28517 ft 383 kts 276°
2026-05-07 13:15 41.18104 31.62928 28112 ft 381 kts 276°
2026-05-07 13:15 41.18117 31.59418 27719 ft 379 kts 276°
2026-05-07 13:16 41.18128 31.55928 27327 ft 377 kts 276°
2026-05-07 13:16 41.18139 31.52451 26942 ft 376 kts 276°
2026-05-07 13:16 41.18152 31.48996 26561 ft 374 kts 276°
2026-05-07 13:16 41.18165 31.45552 26184 ft 372 kts 275°
2026-05-07 13:17 41.18180 31.42128 25816 ft 370 kts 276°
2026-05-07 13:17 41.18196 31.38718 25449 ft 369 kts 275°
2026-05-07 13:17 41.18212 31.35315 25084 ft 368 kts 276°
2026-05-07 13:17 41.18227 31.31930 24733 ft 366 kts 275°
2026-05-07 13:18 41.18238 31.28552 24381 ft 365 kts 275°
2026-05-07 13:18 41.18245 31.25193 24036 ft 364 kts 275°
2026-05-07 13:18 41.18249 31.21842 23685 ft 362 kts 275°
2026-05-07 13:18 41.18254 31.18503 23270 ft 361 kts 275°
2026-05-07 13:19 41.18261 31.15140 22856 ft 359 kts 275°
2026-05-07 13:19 41.18268 31.11878 22459 ft 357 kts 275°
2026-05-07 13:19 41.18273 31.08546 22058 ft 355 kts 275°
2026-05-07 13:19 41.18275 31.05277 21668 ft 353 kts 275°
2026-05-07 13:20 41.18279 31.02022 21288 ft 352 kts 274°
2026-05-07 13:20 41.18281 30.98785 20903 ft 350 kts 274°
2026-05-07 13:20 41.18282 30.95559 20528 ft 348 kts 274°
2026-05-07 13:20 41.18281 30.92355 20156 ft 347 kts 274°
2026-05-07 13:21 41.18280 30.89158 19796 ft 345 kts 274°
2026-05-07 13:21 41.18278 30.85977 19457 ft 344 kts 274°
2026-05-07 13:21 41.18276 30.82808 19122 ft 343 kts 274°
2026-05-07 13:21 41.18272 30.79649 18793 ft 342 kts 274°
2026-05-07 13:22 41.18264 30.76509 18469 ft 340 kts 273°
2026-05-07 13:22 41.18256 30.73365 18098 ft 339 kts 273°
2026-05-07 13:22 41.18251 30.70245 17724 ft 337 kts 273°
2026-05-07 13:22 41.18247 30.67142 17349 ft 336 kts 273°
2026-05-07 13:23 41.18240 30.64052 16984 ft 334 kts 273°
2026-05-07 13:23 41.18232 30.60984 16590 ft 331 kts 273°
2026-05-07 13:23 41.18223 30.57942 16218 ft 328 kts 272°
2026-05-07 13:23 41.18213 30.54924 15845 ft 326 kts 272°
2026-05-07 13:24 41.18200 30.51920 15497 ft 325 kts 272°
2026-05-07 13:24 41.18188 30.48928 15152 ft 323 kts 272°
2026-05-07 13:24 41.18175 30.45958 14811 ft 321 kts 272°
2026-05-07 13:24 41.18165 30.43002 14475 ft 319 kts 272°
2026-05-07 13:25 41.18154 30.40078 14146 ft 314 kts 272°
2026-05-07 13:25 41.18141 30.37205 13851 ft 309 kts 271°
2026-05-07 13:25 41.18125 30.34381 13528 ft 303 kts 271°
2026-05-07 13:25 41.18109 30.31596 13212 ft 299 kts 271°
2026-05-07 13:26 41.18093 30.28860 12902 ft 295 kts 271°
2026-05-07 13:26 41.18075 30.26155 12589 ft 291 kts 271°
2026-05-07 13:26 41.18056 30.23488 12279 ft 287 kts 271°
2026-05-07 13:26 41.18039 30.20858 11978 ft 283 kts 271°
2026-05-07 13:27 41.18013 30.18261 11677 ft 280 kts 269°
2026-05-07 13:27 41.17694 30.15718 11381 ft 279 kts 256°
2026-05-07 13:27 41.17003 30.13276 11085 ft 279 kts 251°
2026-05-07 13:27 41.16291 30.10890 10788 ft 277 kts 251°
2026-05-07 13:28 41.15587 30.08524 10500 ft 276 kts 251°
2026-05-07 13:28 41.14884 30.06158 10211 ft 275 kts 251°
2026-05-07 13:28 41.14186 30.03802 9905 ft 274 kts 251°
2026-05-07 13:28 41.13495 30.01467 9598 ft 272 kts 251°
2026-05-07 13:29 41.12806 29.99137 9288 ft 270 kts 251°
2026-05-07 13:29 41.12121 29.96825 8975 ft 268 kts 251°
2026-05-07 13:29 41.11440 29.94531 8673 ft 266 kts 251°
2026-05-07 13:29 41.10764 29.92255 8362 ft 264 kts 251°
2026-05-07 13:30 41.10094 29.90005 8058 ft 262 kts 251°
2026-05-07 13:30 41.09425 29.87765 7757 ft 260 kts 251°
2026-05-07 13:30 41.08759 29.85544 7465 ft 258 kts 251°
2026-05-07 13:30 41.08117 29.83395 7176 ft 256 kts 251°
2026-05-07 13:31 41.07802 29.82346 7035 ft 255 kts 250°
2026-05-07 13:31 41.07366 29.80104 6757 ft 249 kts 259°
2026-05-07 13:31 41.06840 29.77911 6456 ft 250 kts 250°
2026-05-07 13:31 41.06159 29.75817 6182 ft 247 kts 247°
2026-05-07 13:32 41.05447 29.73754 5926 ft 243 kts 248°
2026-05-07 13:32 41.04757 29.71720 5671 ft 241 kts 248°
2026-05-07 13:32 41.04097 29.69722 5451 ft 233 kts 246°
2026-05-07 13:32 41.03284 29.67914 5184 ft 221 kts 240°
2026-05-07 13:33 41.02508 29.66249 4945 ft 209 kts 239°
2026-05-07 13:33 41.01757 29.64608 4686 ft 206 kts 240°
2026-05-07 13:33 41.01021 29.62989 4434 ft 204 kts 240°
2026-05-07 13:33 41.00290 29.61374 4170 ft 204 kts 240°
2026-05-07 13:34 40.99562 29.59767 3928 ft 203 kts 240°
2026-05-07 13:34 40.98141 29.56603 3502 ft 194 kts 244°
2026-05-07 13:34 40.97556 29.55016 3349 ft 183 kts 245°
2026-05-07 13:35 40.97031 29.53581 3173 ft 164 kts 246°
2026-05-07 13:35 40.96551 29.52264 3042 ft 156 kts 244°
2026-05-07 13:35 40.96102 29.51037 2844 ft 144 kts 246°
2026-05-07 13:35 40.95667 29.49842 2678 ft 144 kts 246°
2026-05-07 13:36 40.95243 29.48678 2465 ft 138 kts 247°
2026-05-07 13:36 40.94822 29.47526 2235 ft 139 kts 245°
2026-05-07 13:36 40.94416 29.46417 2039 ft 137 kts 245°
2026-05-07 13:36 40.93999 29.45286 1834 ft 135 kts 246°
2026-05-07 13:37 40.93591 29.44170 1625 ft 134 kts 246°
2026-05-07 13:37 40.93181 29.43050 1422 ft 137 kts 245°
2026-05-07 13:37 40.92767 29.41922 1236 ft 134 kts 245°
2026-05-07 13:37 40.92362 29.40820 1093 ft 136 kts 246°
2026-05-07 13:38 40.91950 29.39697 960 ft 133 kts 245°
2026-05-07 13:38 40.91561 29.38637 836 ft 136 kts 245°
2026-05-07 13:38 40.91259 29.37780 745 ft 135 kts 247°
2026-05-07 13:38 40.90860 29.36666 628 ft 134 kts 244°
2026-05-07 13:39 40.90449 29.35557 504 ft 134 kts 245°
2026-05-07 13:39 40.90040 29.34454 407 ft 134 kts 245°
2026-05-07 13:39 40.89632 29.33365 308 ft 124 kts 245°
2026-05-07 13:39 40.89430 29.32808 301 ft 19 kts 244°
2026-05-07 13:40 40.89370 29.32650 301 ft 19 kts 243°
2026-05-07 13:40 40.89305 29.32487 303 ft 21 kts 244°
2026-05-07 13:40 40.89359 29.32427 308 ft 12 kts 16°
2026-05-07 13:40 40.89437 29.32462 309 ft 12 kts
2026-05-07 13:41 40.89514 29.32404 307 ft 14 kts 317°
2026-05-07 13:41 40.89589 29.32311 307 ft 16 kts 317°
2026-05-07 13:41 40.89679 29.32258 306 ft 13 kts 31°
2026-05-07 13:41 40.89720 29.32329 308 ft 10 kts 62°
2026-05-07 13:42 40.89731 29.32364 308 ft 0 kts 67°